Find OneWeb SL0532

NORAD ID: 55140 Int'l Des: 2023-004 Owner: ONEWEBN Country: UK Constellation: oneweb operational
LEOCIRCULARPOLARONEWEB_TYPE

实时位置

正在加载3D地球...

关于 OneWeb SL0532

正在加载描述...

即将过境

Passes for default location (London). Set your location on the main map for personalized predictions.

高度历史

Loading altitude history...

两行轨道根数

1 55140U 23004A 26127.17968874 .00000061 00000-0 12301-3 0 9999
2 55140 87.9173 14.0157 0001691 93.0471 267.0854 13.17649763162188
Epoch: May 7, 2026 • Age: 5 hours

当前状态

高度 1223.4 km
速度 7.24 km/s
星下点 -82.16°S, 6.93°W
发射日期 Jan 10, 2023
运行时间 3.3 years
类型 internet

技术详情

分类 Payload
质量 148.00 kg
干质量 140.00 kg
总质量 148.00 kg
长度 1.30 m
直径 1.00 m
跨度 5.00 m
形状 Trapezoid+2 pan
制造商 ONEWUS
平台类型 ARROW
阶段状态 In Orbit
所有者/国家 ONEWEBN/UK

Most Searched